Regional Weather Roundup
Issued by NWS

Home | Current Version | Previous Version | Text Only | Print | Product List | Glossary Off
Versions: 1 2 3 4 5 6 7 8 9 10 11 12 13 14 15 16 17 18 19 20 21 22 23 24 25 26 27 28 29 30 31 32 33 34 35 36 37 38 39 40 41 42 43 44 45 46 47 48 49 50

000
ASUS43 KLOT 261903
RWRIL

ILLINOIS REGIONAL WEATHER ROUNDUP
NATIONAL WEATHER SERVICE CHICAGO/ROMEOVILLE IL
200 PM CDT THU MAY 26 2016

NOTE: "FAIR" INDICATES FEW OR NO CLOUDS BELOW 12,000 FEET WITH NO
SIGNIFICANT WEATHER AND/OR OBSTRUCTIONS TO VISIBILITY.

* THESE STATIONS ARE NOT UNDER NWS QUALITY CONTROL. THEY ALSO MAY NOT
  REPORT WEATHER SUCH AS PRECIPITATION OR FOG.

ILZ001-002-007-009-015-016-024-262000-
NORTHWEST ILLINOIS

CITY           SKY/WX    TMP DP  RH WIND       PRES   REMARKS
MOLINE         SUNNY     87  64  46 SW10G22   29.85F HX  88
STERLING*      PTSUNNY   83  65  54 SW12G17   29.88F HX  85
$$

ILZ003-004-008-010-011-017-018-262000-
NORTH CENTRAL ILLINOIS

CITY           SKY/WX    TMP DP  RH WIND       PRES   REMARKS
ROCKFORD       PTSUNNY   81  63  54 W12       29.90R HX  82
FREEPORT*      MOSUNNY   79  64  58 SW15      29.90S HX  81
ROCHELLE*      MOSUNNY   79  67  66 SW10G16   29.89S HX  81
$$

ILZ005-006-012>014-019>023-262000-
NORTHEAST ILLINOIS

CITY           SKY/WX    TMP DP  RH WIND       PRES   REMARKS
CHICAGO-OHARE  PTSUNNY   79  63  57 SW13      29.88S HX  80
CHICAGO-MIDWAY PTSUNNY   79  64  60 SW14      29.88F HX  81
AURORA         CLOUDY    80  64  58 SW12      29.90S HX  82
LANSING*       SUNNY     80  62  54 S15       29.90F HX  81
WAUKEGAN       PTSUNNY   80  62  54 SW12G21   29.86F HX  81
DUPAGE AIRPORT MOSUNNY   79  62  56 SW12      29.89S HX  80
WHEELING       PTSUNNY   79  60  52 SW13      29.88F HX  80
NORTHERLY ISL    N/A     78  62  57 S13         N/A  HX  80
NORTHERLY ISL    N/A     78  62  57 S13         N/A  HX  80
$$

LMZ740>746-262000-
SOUTHERN LAKE MICHIGAN

STATION/POSITION SKY/WX   TEMP    WIND        PRES    VSBY  WAVE
                          AIR SEA DIR/SP/G                  HT/PER
                          (F)     (DEG/KT/KT) (MB)    (MI)  (FT/S)
SOUTHERN BUOY              56 49  180/ 12/ 14 1012.0          1/ 3
WILMETTE HARBOR            61 56  160/  6/  8   N/A           1
HARRISON CRIB              72     170/  9/ 11   N/A
BURNHAM HARBOR             78     190/ 15/ 15   N/A
CALUMET HARBOR             76     190/  7/ 10 1011.8F
BURNS HARBOR               79     190/ 15/ 19 1012.2F
MICHIGAN CITY              76     140/ 10/ 12   N/A
MICHIGAN CITY 6N           68 58   60/  2/  6   N/A           1/ 2
ST. JOSEPH                 68 60  160/  8/ 12   N/A           1/ 2
$$

ILZ025>027-034>036-040-047-049-050-058-095>099-262000-
WEST-CENTRAL ILLINOIS

CITY           SKY/WX    TMP DP  RH WIND       PRES   REMARKS
QUINCY         SUNNY     82  66  58 S10       29.90F HX  84
MACOMB*        SUNNY     82  64  54 S8        29.92F HX  84
PITTSFIELD*    SUNNY     80  68  66 S9        29.92F HX  83
$$

ILZ028>032-037-038-041>044-048-051>054-059>061-262000-
CENTRAL ILLINOIS

CITY           SKY/WX    TMP DP  RH WIND       PRES   REMARKS
BLOOMINGTON    SUNNY     82  68  62 SW9       29.95R HX  85
DECATUR        MOSUNNY   81  64  56 SW14      29.94R HX  82
PEORIA         MOSUNNY   80  64  58 S6        29.91S HX  82
SPRINGFIELD    CLOUDY    82  65  56 SW9       29.91S HX  84
TAYLORVILLE    NOT AVBL
$$

ILZ033-039-045-046-055>057-062-063-262000-
EAST-CENTRAL ILLINOIS

CITY           SKY/WX    TMP DP  RH WIND       PRES   REMARKS
CHAMPAIGN      MOSUNNY   82  63  52 S17G25    29.94R HX  83
MATTOON        PTSUNNY   76  64  66 S12       29.96R
$$

ILZ079-100>102-262000-
SOUTHWEST ILLINOIS

CITY           SKY/WX    TMP DP  RH WIND       PRES   REMARKS
ALTON          PTSUNNY   73  66  78 SE10      29.92F
BELLEVILLE     CLOUDY    73  70  92 E12       29.89F
CAHOKIA*       CLOUDY    76  66  71 E6        29.91F
SPARTA*        CLOUDY    66  65  94 S15       29.90F
$$

ILZ064>066-069>071-074>076-080>082-084>086-088>090-092>094-262000-
SOUTH-CENTRAL ILLINOIS

CITY           SKY/WX    TMP DP  RH WIND       PRES   REMARKS
CARBONDALE     TSTM      66  63  90 SE16      29.99F
MARION         CLOUDY    66  66 100 SE14      30.03S THUNDER
MT. VERNON     CLOUDY    66  63  88 S18G24    29.93F
SALEM*         CLOUDY    71  66  84 S10       29.96F
$$

ILZ067-068-072-073-078-083-087-091-262000-
SOUTHEAST ILLINOIS

CITY           SKY/WX    TMP DP  RH WIND       PRES   REMARKS
LAWRENCEVILLE  CLOUDY    72  67  84 SE9       29.98R
FLORA*         CLOUDY    73  67  81 SW13      29.98F
HARRISBURG*    TSTM      67  66  97 CALM      30.03F
ROBINSON*      CLOUDY    72  67  83 S8        29.98F
$$

ABBREVIATIONS USED IN REMARKS
   TC - TEMPERATURE IN CELSIUS
  WCI - WIND CHILL INDEX
   HX - HEAT INDEX
  VSB - VISIBILITY
$$




USA.gov is the U.S. government's official web portal to all federal, state and local government web resources and services.